Location: Geyikbay?r?
(36.8756°N, 30.4583°E)
Time: 15:40:50
(UTC+00:00)

OAO 1 Rocket - Pass Details

Date: 05 August 2024
Orbit: 739 x 751 km, 35.0° (Epoch: 11 September)

Event Time Altitude Azimuth Distance (km) Brightness Sun altitude
Rises 17:47:26 0° 268° (W) 3,171 8.8 -9.3°
Reaches altitude 10° 17:49:53 10° 266° (W) 2,250 7.9 -9.7°
Maximum altitude 17:55:10 74° 183° (S) 776 4.5 -10.6°
Enters shadow 17:59:52 13° 99° (E) 2,033 6.1 -11.4°
